Theta_e
325 322 321 321 323 326 325 324 324 323 323 321 319 317 317 318 318 319 319 321 321 321 321 321 321 321 324 326 327 327 328 328 328 327 327 325 324 326 328 330 332 333 334 333 333 332 331 328 320 316 321 323 322 321 318 317 316 313 312 311 313 313 314 313 313 312 311 311 312 312 312 311 312 312 312 312 311 311 311 311 311 311 311 311 311
322 322 321 320 323 325 325 324 323 322 322 320 318 317 317 318 318 318 319 319 320 321 321 321 320 322 326 328 328 328 328 329 328 326 325 324 328 332 333 333 334 334 333 332 332 331 331 326 318 314 314 316 317 317 317 315 312 311 312 313 315 316 315 314 313 312 311 312 312 311 311 312 312 313 313 313 313 313 313 313 314 314 314 314 314
321 322 320 320 323 325 324 323 322 322 321 319 318 317 317 318 318 318 318 319 320 320 320 320 320 323 327 329 328 328 329 329 327 326 324 327 332 334 333 333 333 332 331 330 331 331 330 323 316 314 313 314 316 315 314 312 312 314 314 316 320 320 316 316 316 313 312 312 312 313 312 313 314 315 315 315 315 315 315 316 316 317 317 317 317
322 322 320 321 323 325 323 322 322 321 321 319 317 317 317 318 318 318 318 319 319 319 320 320 320 324 328 329 329 329 329 329 328 326 325 328 331 329 329 331 331 331 330 330 331 330 328 321 314 313 313 313 313 313 315 314 316 317 319 321 325 323 320 319 319 316 315 314 314 314 314 314 315 316 316 316 316 316 316 316 316 317 317 318 318
322 321 320 320 322 324 323 323 322 321 321 319 318 317 317 317 318 318 318 318 319 319 319 320 320 323 328 329 329 329 329 328 327 327 326 328 327 325 326 327 327 328 329 330 331 329 327 320 313 312 312 312 315 319 322 321 321 322 323 325 327 326 323 321 321 321 319 315 315 315 315 315 316 316 317 317 317 317 317 317 317 317 317 318 318
322 321 320 320 322 324 323 322 321 321 320 319 318 317 317 317 318 318 318 318 318 318 319 320 320 322 326 328 328 329 329 328 327 326 327 328 327 326 326 326 326 327 329 331 330 329 326 319 313 312 312 314 320 325 327 327 326 325 327 328 328 325 324 323 324 325 322 317 315 315 315 316 316 316 316 317 317 317 317 318 318 318 318 318 318
322 321 320 320 321 322 322 322 321 321 320 319 318 318 317 317 317 317 317 317 317 317 318 319 319 321 324 326 328 329 328 328 327 326 326 326 326 326 324 323 325 328 330 330 329 328 326 318 312 314 316 318 324 328 329 328 328 328 329 328 325 325 326 326 326 327 325 322 319 316 315 316 316 316 317 317 318 318 318 318 318 318 318 318 319
322 322 320 320 321 321 322 322 321 320 320 319 318 318 317 317 317 317 317 317 316 317 317 318 319 320 322 325 327 328 328 328 327 325 325 325 325 324 321 320 324 329 330 329 328 327 325 318 312 316 319 322 326 328 329 328 328 327 327 325 325 326 327 327 328 328 327 326 323 319 319 319 319 318 318 319 319 319 319 319 319 319 319 319 319
321 321 320 320 320 321 321 321 321 320 320 319 318 318 318 317 317 317 317 317 316 316 316 317 318 319 320 323 325 326 326 326 326 324 324 324 324 321 319 321 325 327 327 326 325 326 325 317 312 317 320 323 327 328 329 328 327 325 325 325 326 327 328 328 328 329 329 329 326 324 326 326 324 322 321 322 322 321 321 321 321 320 320 320 320
322 321 321 320 320 320 320 321 321 320 319 319 318 318 318 317 317 317 317 316 316 315 315 316 318 318 319 321 324 325 325 324 324 322 323 323 322 320 321 324 322 319 319 319 321 324 324 317 313 317 321 324 326 327 328 327 326 326 326 326 326 327 327 328 328 329 330 330 328 328 329 330 328 325 325 327 326 325 324 323 322 322 322 322 322
322 322 321 320 320 320 320 320 320 320 319 319 319 319 318 318 317 317 317 317 316 315 315 316 317 317 317 319 322 324 324 323 321 321 321 322 320 320 322 324 318 313 314 316 319 322 321 315 314 318 321 324 324 325 327 327 327 328 328 328 328 328 328 328 328 329 330 331 330 329 330 330 329 327 328 329 329 329 328 326 324 324 323 323 323
322 322 321 321 320 320 320 320 320 320 319 319 319 319 319 318 317 317 317 317 316 315 314 315 316 317 317 318 320 322 322 320 319 319 320 320 319 319 322 324 317 311 313 316 318 319 317 314 315 318 321 323 322 323 327 328 328 329 330 331 331 331 329 328 328 328 330 331 330 330 330 331 330 328 329 330 330 330 330 328 326 325 325 324 325
322 322 321 320 320 320 320 320 320 319 319 319 319 319 319 318 317 317 317 316 316 315 314 315 315 316 316 316 318 320 320 319 318 318 318 318 317 319 322 324 317 311 312 314 315 316 314 313 315 317 319 321 319 323 327 328 329 329 331 332 332 332 331 329 328 328 330 331 330 330 330 331 331 329 330 331 330 331 332 330 327 325 326 326 326
322 322 321 320 320 320 320 320 319 320 319 319 319 319 319 319 318 317 317 316 316 315 314 315 315 315 315 315 317 319 319 318 317 317 317 317 317 319 322 323 317 311 311 312 313 313 313 312 314 315 315 316 317 323 327 328 328 329 331 331 330 332 332 331 329 330 331 331 329 330 330 331 331 330 330 331 331 332 332 331 327 326 326 326 326
322 322 321 320 320 320 320 320 320 320 319 319 319 319 319 318 318 317 317 316 316 315 315 315 315 315 315 315 317 318 318 317 317 317 316 316 317 319 322 322 317 312 311 311 312 312 312 312 312 313 312 312 315 322 328 328 328 329 330 330 328 330 333 332 332 333 333 331 329 330 331 331 332 331 331 332 332 333 333 331 328 326 326 326 326
324 322 321 320 320 321 321 321 321 320 320 319 318 319 319 318 318 318 316 316 315 315 315 315 315 315 315 316 317 318 317 317 316 316 316 316 317 320 322 322 318 312 311 311 311 311 312 312 312 312 312 312 313 321 327 325 326 329 328 329 327 328 333 333 333 333 333 331 331 331 331 332 332 331 331 332 333 333 333 332 329 327 327 326 326
325 323 321 320 321 322 321 322 322 321 321 319 318 318 318 318 318 318 316 316 315 315 315 315 315 315 316 317 318 318 317 316 316 316 316 317 317 319 321 322 319 314 311 311 311 312 312 312 312 312 312 312 312 317 321 318 321 325 324 328 326 326 332 333 333 333 333 332 331 331 331 332 332 332 332 332 333 334 333 332 330 328 327 327 326
326 323 321 321 321 322 323 323 322 321 321 319 319 318 318 318 318 318 317 316 315 315 315 314 315 316 315 318 319 318 318 317 316 316 316 317 317 318 320 321 320 316 312 311 312 312 312 312 312 312 312 312 312 312 314 314 316 319 321 325 323 322 327 330 333 332 332 331 330 331 331 332 332 332 332 333 334 334 333 332 331 329 328 328 327
327 324 322 321 321 322 323 324 323 322 321 320 319 318 319 318 317 318 317 316 316 315 315 314 316 316 315 317 320 319 318 317 316 317 316 317 317 318 319 319 320 317 313 312 311 312 312 312 312 313 313 314 314 314 315 316 317 319 322 324 323 322 322 324 330 333 332 330 330 331 332 332 332 332 332 333 334 334 333 332 332 330 329 329 328
329 325 324 322 322 322 323 324 325 324 322 320 319 319 319 319 318 318 317 317 316 316 315 314 315 317 316 317 320 320 318 317 317 317 317 317 317 318 319 319 319 317 315 313 312 312 312 312 313 315 317 317 317 317 317 317 321 325 327 328 328 327 325 321 324 329 329 329 330 332 332 333 333 333 332 334 334 334 333 333 332 331 330 329 329
335 329 325 324 322 322 323 324 325 325 323 321 319 319 319 319 318 318 318 318 317 317 316 315 315 316 316 316 318 320 319 317 317 317 317 317 318 318 318 319 318 317 316 315 313 313 313 313 315 316 318 318 317 316 316 321 326 327 328 329 329 330 330 324 321 325 328 330 332 332 333 332 333 333 333 334 334 334 334 333 333 332 331 330 329
341 336 330 326 324 322 323 323 324 324 323 322 319 319 319 319 319 318 319 318 318 318 317 316 315 315 315 315 315 317 319 319 318 317 317 317 318 318 318 319 319 318 317 316 315 314 314 315 315 316 317 316 316 315 317 324 328 328 328 328 328 329 331 329 328 329 331 332 332 332 333 332 333 333 333 334 334 334 334 334 333 333 332 331 330
346 342 335 329 326 323 323 322 322 323 323 322 320 319 319 319 319 319 318 318 318 318 318 317 315 314 313 313 313 314 316 318 319 318 318 318 318 318 318 319 318 319 319 318 317 316 316 316 316 316 316 315 317 318 321 326 327 328 328 327 327 327 329 331 331 332 332 332 332 332 332 332 333 333 334 334 334 334 334 333 333 333 333 331 331
348 345 340 334 330 326 323 322 322 321 322 322 320 320 320 320 319 319 319 318 318 319 319 318 316 314 312 312 312 312 313 316 318 319 318 318 318 318 319 319 318 319 320 318 318 317 317 316 316 316 314 316 322 325 326 327 327 328 328 327 328 328 328 330 331 332 332 332 332 332 332 333 333 334 334 334 334 334 334 333 333 333 332 332 331
348 346 343 339 335 330 325 323 321 321 321 320 320 320 320 321 320 319 319 319 319 319 319 318 317 315 312 312 311 311 312 313 316 318 318 318 318 318 318 319 319 319 320 318 317 317 316 316 316 314 315 321 326 327 328 328 328 329 328 328 329 329 330 331 331 331 331 332 332 332 333 333 334 334 334 334 334 335 334 333 332 332 331 332 331
348 347 344 343 339 333 328 324 322 321 320 320 319 319 320 321 321 320 319 319 319 318 319 319 318 316 314 312 311 310 311 312 313 316 318 318 318 318 318 319 319 320 319 318 317 317 316 316 315 314 318 323 326 327 328 329 329 329 330 330 329 329 331 332 333 332 332 332 333 333 333 333 333 333 334 334 334 335 334 333 333 332 331 331 331
348 347 345 343 341 336 330 326 323 321 320 320 319 320 320 321 321 319 319 319 318 318 319 319 319 318 315 313 312 310 310 311 312 314 316 318 318 317 318 318 319 320 320 319 318 317 316 316 315 314 317 323 325 327 329 329 329 329 329 330 330 330 331 333 333 333 333 333 333 333 333 333 332 333 334 334 335 334 334 333 332 330 330 330 330
347 347 345 343 341 338 333 328 325 322 321 320 320 320 320 321 320 320 319 319 319 319 318 318 319 318 316 314 312 311 310 311 311 312 314 316 318 318 318 318 319 319 320 320 319 318 317 316 314 313 316 321 324 328 329 329 329 328 329 329 330 331 332 333 333 333 334 333 333 333 333 332 333 334 334 334 335 334 333 333 332 330 329 330 330
346 345 343 342 340 338 335 330 326 324 322 320 320 320 320 320 320 320 319 319 319 319 318 318 318 318 317 315 313 313 311 310 311 311 312 314 316 318 318 318 319 319 319 320 320 319 317 316 315 315 317 320 324 328 328 329 329 329 329 330 332 334 334 334 334 333 333 333 333 333 333 333 333 333 334 334 334 333 333 332 332 331 329 328 328
344 342 341 339 338 337 336 332 328 325 323 321 320 320 320 319 319 319 319 318 319 318 319 318 318 318 318 317 315 314 313 312 310 310 311 312 314 317 318 318 318 319 319 320 320 319 318 316 315 316 318 320 323 325 327 328 328 330 331 332 334 335 335 334 333 333 332 333 333 333 333 333 333 333 334 334 333 332 332 332 332 331 328 327 327
342 341 339 337 335 334 334 332 329 326 324 322 321 320 320 319 319 319 318 318 318 318 318 318 318 317 318 318 316 316 315 314 313 311 310 311 312 315 317 318 318 318 319 319 319 319 318 316 315 315 317 320 322 324 326 327 329 331 332 334 336 335 334 333 333 333 333 333 333 333 334 333 332 332 332 332 331 331 331 331 331 328 327 327 327
341 340 338 336 334 332 332 331 329 327 326 324 323 321 320 320 319 319 318 318 317 318 318 319 318 317 318 318 318 318 317 316 315 313 311 310 310 312 315 317 318 318 318 319 319 318 316 314 313 314 316 319 323 325 325 327 330 333 333 334 335 335 333 332 332 332 332 333 333 333 333 333 332 329 329 329 330 330 330 329 328 326 327 327 328
341 340 338 336 334 333 333 330 328 327 327 326 325 323 322 321 320 319 318 318 318 318 318 318 318 318 318 318 319 319 319 318 318 315 313 312 312 312 313 316 318 318 318 318 317 315 314 313 313 314 317 321 323 324 326 329 332 333 333 333 333 333 332 332 332 332 333 333 332 332 333 333 332 329 328 329 329 329 329 328 327 327 327 327 328
340 339 337 336 335 336 336 333 330 329 328 328 327 326 324 322 321 320 318 318 317 317 318 318 318 318 319 319 319 320 320 320 321 320 315 315 316 314 314 315 317 318 317 317 316 313 312 313 315 319 321 322 323 325 328 331 333 333 333 332 332 332 332 332 332 333 333 332 329 330 331 331 331 329 329 329 329 329 328 328 328 328 328 328 329
339 337 334 334 335 337 338 338 336 334 332 331 328 327 327 324 322 321 319 318 317 317 317 317 318 319 319 320 320 321 322 323 325 325 320 317 318 318 316 315 316 318 317 316 314 312 312 315 320 323 323 324 326 329 331 333 334 334 333 332 332 332 332 332 332 332 331 328 324 326 330 330 329 329 329 330 329 329 328 328 328 328 328 329 329
339 335 333 333 335 337 338 340 340 338 337 335 332 329 328 327 324 322 320 319 318 317 317 318 319 320 320 320 321 322 324 326 327 327 324 320 320 322 320 316 316 317 317 316 315 315 316 319 324 325 324 326 329 332 333 334 335 334 333 331 331 331 330 330 330 329 328 325 323 326 330 330 329 330 330 330 329 329 328 328 329 329 329 330 330
338 335 333 333 333 335 338 341 340 338 338 337 335 332 329 328 326 325 323 321 319 319 318 318 320 321 321 321 322 323 325 327 329 330 327 323 323 326 324 317 317 317 318 321 321 322 323 325 327 326 325 327 330 332 332 334 335 335 333 331 330 329 328 328 328 328 327 324 325 329 330 329 330 330 330 329 329 329 329 329 329 329 329 329 329
338 336 335 333 332 334 338 340 338 336 336 336 336 334 331 329 328 327 325 324 322 321 320 319 320 321 322 322 323 324 326 329 333 333 330 327 325 327 326 320 319 321 323 326 328 328 328 329 328 326 326 327 329 330 331 334 334 333 331 330 328 327 327 328 328 327 326 325 327 329 329 329 330 330 329 328 327 328 328 329 329 329 329 329 328
339 337 337 335 332 335 338 338 336 334 332 333 335 335 332 330 329 328 328 327 325 324 322 320 321 322 322 323 324 326 329 333 334 333 332 330 328 328 328 325 323 325 327 328 330 331 331 330 327 326 327 329 329 329 331 334 333 331 330 329 327 325 327 329 328 327 327 327 328 329 329 329 329 329 328 327 327 327 328 329 329 329 329 328 327
340 337 337 335 334 336 338 337 336 335 333 332 332 333 332 331 330 330 329 328 327 326 324 322 321 322 323 323 325 329 333 335 335 334 332 331 330 330 330 328 326 327 327 328 330 331 330 329 327 327 329 331 332 332 333 335 333 330 329 328 326 323 326 329 329 328 328 327 328 328 328 329 328 328 328 327 326 326 327 328 328 329 328 326 325
342 338 336 335 335 337 338 338 337 337 336 335 333 332 331 331 330 330 330 329 328 328 326 324 322 322 322 324 328 332 335 336 335 334 333 332 332 331 331 331 329 327 326 327 329 330 329 328 328 328 331 334 335 335 335 334 331 330 329 328 325 322 325 329 330 330 329 327 328 328 329 329 328 328 328 326 326 325 326 328 328 327 326 325 323
341 338 336 335 336 337 337 338 339 339 339 337 335 333 332 331 331 331 331 331 330 330 327 324 322 321 323 327 332 335 336 336 335 334 334 333 332 331 331 331 330 328 326 326 330 331 330 330 328 328 332 335 336 335 335 333 331 330 330 327 325 325 326 329 330 331 329 328 328 329 329 329 329 328 327 326 326 325 326 327 327 326 325 324 323
339 336 336 337 337 337 338 338 339 339 339 338 336 334 333 333 333 333 332 332 331 329 327 325 324 324 327 332 335 336 336 336 335 335 334 334 333 331 329 328 328 329 328 328 331 331 331 331 328 329 334 336 336 336 335 333 331 331 330 327 326 329 328 328 330 330 329 328 329 329 329 329 329 328 327 326 326 326 326 326 326 326 325 324 324
340 337 337 338 338 337 338 339 339 340 339 339 337 335 334 336 336 335 333 333 332 330 330 330 331 331 333 336 336 336 336 336 336 336 334 333 333 331 328 325 325 328 328 329 330 330 331 331 329 332 336 336 336 336 335 334 331 331 330 326 325 329 329 329 330 330 329 329 329 329 329 329 328 328 327 326 326 326 326 326 325 326 325 324 324
339 337 337 337 338 338 339 339 340 340 340 339 338 336 336 337 337 336 335 335 335 335 335 335 335 335 336 337 337 337 337 337 337 336 335 334 334 333 329 326 326 327 327 329 330 330 330 330 330 334 337 337 336 336 335 334 331 331 330 328 326 328 330 329 329 329 329 329 329 329 329 329 328 328 328 327 327 326 326 326 325 326 325 324 324
338 337 337 337 338 339 339 340 340 340 340 339 339 337 336 337 338 338 337 336 337 337 337 336 335 335 335 337 338 338 338 338 337 336 335 335 335 334 331 327 326 325 325 328 329 329 330 330 333 336 337 337 336 336 336 334 331 330 331 330 326 324 326 329 329 328 328 329 329 329 329 329 329 329 329 328 328 327 326 326 326 326 325 324 323
337 337 338 338 339 339 340 340 340 341 340 340 340 339 337 338 338 338 338 337 337 337 337 337 336 335 335 335 337 338 339 338 338 337 336 336 335 335 332 326 322 321 323 326 326 327 329 332 334 336 336 337 336 336 336 333 332 331 330 329 327 322 322 326 328 327 327 328 328 329 329 329 329 329 329 328 328 327 326 326 326 325 324 323 322
338 338 339 339 339 340 340 341 341 341 341 340 340 339 338 338 338 339 339 338 338 337 337 337 337 336 336 335 336 338 339 339 338 337 336 336 335 335 333 325 318 316 321 325 325 326 329 333 335 336 336 337 336 336 336 334 332 331 330 329 327 324 321 324 328 328 327 326 327 328 329 329 329 329 328 328 327 326 326 326 325 324 323 322 320
338 338 338 339 339 340 341 341 341 341 341 341 340 339 339 339 338 338 339 339 338 338 338 338 337 337 337 337 337 338 339 339 339 337 336 335 335 335 333 327 318 315 319 326 328 328 331 334 336 336 336 336 336 336 336 334 332 331 330 329 327 325 323 323 326 328 327 326 326 327 328 328 328 328 328 328 327 325 325 325 324 323 321 320 319
339 339 339 340 340 341 341 341 341 341 341 341 341 339 338 339 339 338 338 338 339 339 339 339 339 339 339 339 338 338 339 339 339 338 336 335 335 334 334 330 322 317 319 326 329 330 333 336 336 336 335 333 334 335 335 334 333 332 331 330 328 327 325 323 324 325 326 326 325 326 327 328 327 327 327 326 326 325 324 324 323 321 320 319 319
342 341 341 341 341 341 341 341 341 342 342 341 341 339 338 339 339 339 339 338 338 338 339 339 339 339 340 339 338 338 338 339 339 338 336 335 335 334 334 333 329 323 321 325 330 332 336 337 336 334 332 329 329 333 334 334 333 333 332 331 330 329 327 324 323 323 323 324 325 325 325 326 326 326 326 325 324 324 323 322 321 320 319 319 318
Wind_Speed
33 33 32 31 31 30 28 26 24 22 20 19 18 17 16 15 15 15 15 15 15 15 15 14 14 14 15 15 15 15 15 14 14 14 15 15 14 14 15 15 15 15 15 14 14 14 14 13 12 13 15 17 17 18 21 22 21 20 20 20 20 20 20 19 18 17 17 16 15 15 15 14 14 13 13 12 12 12 11 11 11 11 11 11 11
37 34 33 32 32 31 29 26 25 23 21 19 18 17 16 15 15 14 15 15 15 15 15 14 15 16 15 15 15 14 14 14 14 15 15 15 14 15 15 15 15 14 14 14 14 14 13 12 13 15 17 20 21 21 22 21 20 19 20 20 19 19 19 19 18 18 17 17 16 16 15 15 14 14 14 13 13 12 11 11 11 11 12 12 11
37 35 34 33 32 32 29 27 25 23 22 20 19 18 17 16 15 14 14 15 15 15 15 15 15 16 16 15 15 14 14 14 14 15 15 14 15 15 15 15 14 14 14 14 14 14 13 13 14 17 19 21 21 21 20 20 19 19 18 18 18 18 18 19 19 19 18 18 17 17 16 16 15 15 14 13 13 12 12 12 12 12 12 12 12
36 35 35 33 33 32 29 27 26 24 22 21 19 18 17 16 15 14 14 15 15 15 15 15 15 16 16 15 15 14 14 14 15 14 14 14 15 15 15 14 13 13 13 14 14 14 13 13 15 18 20 21 21 20 19 18 18 17 17 17 17 18 18 18 19 19 19 18 18 17 17 17 16 15 14 14 13 13 13 13 13 13 13 13 12
35 35 36 34 34 32 30 28 26 25 23 21 20 19 18 17 16 15 14 15 15 15 15 15 16 16 16 16 15 14 14 14 14 14 14 14 14 14 14 13 12 12 13 14 14 14 14 14 16 19 20 20 20 19 18 17 16 15 14 15 16 16 16 16 18 19 19 18 18 17 17 17 16 16 15 14 14 14 14 14 14 14 13 13 13
36 36 36 35 34 33 30 28 27 25 24 22 20 19 18 17 17 15 14 14 15 15 15 15 16 16 16 16 15 15 14 14 14 14 13 13 13 13 11 10 10 12 13 14 15 15 14 14 17 19 20 20 19 18 17 16 14 13 13 14 14 14 15 16 17 18 19 18 18 17 17 17 16 15 15 15 15 15 16 16 15 15 15 14 14
36 36 36 35 34 33 31 29 27 25 24 22 21 20 19 18 17 16 15 14 14 15 15 15 16 16 16 16 16 15 14 14 13 13 12 12 12 11 9 9 10 13 12 13 15 15 14 15 17 19 19 19 18 17 16 14 13 13 12 13 13 14 15 15 16 17 18 18 18 17 17 17 16 15 16 16 16 16 16 16 16 16 16 15 14
36 35 35 35 34 32 31 29 27 26 24 23 21 20 19 18 17 16 15 14 14 14 15 15 15 16 16 15 15 15 14 14 13 12 12 11 11 10 8 9 12 14 12 13 15 15 15 15 18 19 19 18 17 16 14 13 12 11 11 12 13 14 14 14 15 16 17 18 18 18 18 18 17 17 17 17 16 16 15 15 15 15 15 15 15
37 35 35 34 33 32 31 29 28 26 25 23 22 21 19 19 18 17 15 15 14 14 15 15 15 15 15 15 15 14 14 13 13 12 11 11 10 10 10 11 13 13 13 14 15 16 15 16 18 19 18 18 16 15 13 12 11 10 10 10 11 12 13 13 13 14 16 17 17 17 18 18 17 17 18 18 17 17 16 15 14 14 14 14 14
37 35 35 34 33 32 31 29 28 26 25 24 22 21 20 19 18 17 16 15 14 14 14 15 15 15 15 15 14 14 13 13 12 12 12 11 11 11 12 12 12 12 13 14 16 17 16 17 18 19 17 17 15 14 12 11 10 9 8 8 8 10 10 10 11 12 13 14 15 15 16 16 16 16 18 19 19 18 17 16 14 14 13 13 13
37 35 35 34 34 32 31 29 28 27 25 24 22 21 20 19 18 17 16 15 15 14 14 15 15 15 15 14 14 14 13 13 12 12 12 12 12 12 12 12 12 13 14 15 17 17 17 17 19 18 17 16 14 12 11 10 9 7 7 5 6 7 8 8 8 9 11 12 12 13 14 15 15 15 17 18 18 19 18 17 15 14 13 13 13
37 36 36 35 34 32 31 29 28 27 26 25 23 22 20 19 19 18 17 16 15 15 14 15 15 15 14 14 14 14 13 13 13 13 13 13 13 13 13 12 12 13 14 15 17 17 17 18 19 17 16 15 13 11 10 9 7 6 6 5 5 5 6 7 7 7 8 10 11 11 12 13 14 14 15 16 17 18 19 18 16 14 13 12 12
39 37 37 36 35 32 30 29 29 28 26 25 23 22 21 20 19 18 17 16 16 15 15 14 15 15 15 14 14 14 14 14 13 13 14 14 14 13 13 13 13 14 14 15 16 17 18 18 18 16 16 14 12 11 10 8 6 5 5 5 5 5 6 7 6 6 7 9 10 10 11 12 13 13 14 15 16 17 18 17 15 14 13 12 11
40 39 38 37 35 32 31 30 29 28 27 25 24 22 21 20 19 19 18 17 16 16 15 15 15 15 15 14 14 15 15 14 14 14 14 14 14 14 13 13 13 14 15 15 15 16 17 18 17 16 15 14 12 11 10 8 6 4 4 4 5 5 6 6 6 6 6 8 8 9 10 10 11 12 12 14 15 15 16 15 13 12 12 11 11
40 38 38 36 34 33 32 31 30 29 27 26 25 23 22 21 20 19 18 17 17 16 16 15 15 15 15 15 15 16 15 15 14 14 14 14 14 14 13 13 13 14 15 15 15 15 16 16 16 15 14 13 12 11 11 9 6 4 3 2 4 5 5 5 5 5 7 8 8 8 9 9 9 10 11 13 14 14 14 14 12 11 11 11 11
39 38 37 36 35 35 34 33 31 30 28 26 25 24 22 21 20 19 18 18 17 16 16 15 15 15 15 15 16 16 16 15 15 15 15 15 15 14 13 13 13 13 14 15 14 15 15 15 14 14 13 12 12 11 11 8 6 5 3 2 2 3 3 4 5 5 6 7 8 8 8 8 8 8 10 12 13 14 14 13 11 11 10 11 11
39 38 37 37 37 36 35 34 32 31 29 27 26 25 23 22 21 20 19 18 17 17 16 16 16 16 16 15 16 16 16 16 15 15 15 15 15 14 13 13 13 13 14 14 14 14 14 14 13 12 12 11 11 11 10 7 6 5 4 3 2 3 2 3 4 4 5 6 7 7 7 6 6 6 8 11 13 13 13 12 11 10 10 10 11
39 38 37 37 37 37 36 35 34 32 30 29 27 26 24 22 21 20 20 19 18 17 16 16 16 17 16 16 16 16 16 17 16 15 15 15 15 14 13 13 13 13 14 14 14 14 13 13 12 11 10 9 9 9 8 7 6 5 4 4 3 3 3 4 4 4 4 5 6 6 6 6 5 5 7 10 12 12 12 11 10 9 9 9 10
37 37 37 36 37 37 37 35 35 33 32 31 29 27 25 24 22 21 20 19 18 17 17 16 16 17 17 18 17 17 17 17 17 16 16 15 15 14 13 13 13 13 13 14 14 13 13 12 11 10 10 9 8 8 8 7 6 5 4 2 1 3 5 6 6 5 5 5 5 5 6 5 5 4 5 9 11 11 11 11 10 9 8 9 9
34 36 37 37 37 37 37 36 35 34 33 32 30 29 27 25 23 22 21 20 19 18 17 17 16 17 18 19 18 18 17 18 18 17 17 16 15 15 14 13 13 13 13 13 13 13 12 11 11 10 9 8 8 8 7 7 7 6 5 4 2 1 4 5 7 6 5 5 5 4 5 5 5 4 4 8 9 9 11 11 10 9 8 8 9
33 35 37 37 38 38 37 37 36 36 34 33 31 30 28 26 25 23 22 21 20 18 18 17 17 18 19 20 20 19 18 18 18 18 18 17 16 15 15 14 14 13 13 13 12 12 12 11 11 10 9 8 8 7 7 8 6 5 4 3 2 0 1 3 4 5 4 4 4 4 5 5 5 4 4 7 7 8 10 10 11 10 9 9 9
34 36 37 38 39 38 38 37 37 36 34 33 32 31 29 28 26 25 23 22 21 20 19 19 19 19 20 21 20 20 19 18 18 18 18 17 17 16 16 15 14 14 13 13 12 12 12 11 11 9 9 8 7 7 8 8 5 5 4 3 2 1 1 1 2 3 3 4 5 6 6 6 5 4 5 6 6 8 9 9 10 10 10 10 10
35 37 38 38 39 39 39 38 37 36 35 34 32 32 31 30 28 27 25 24 22 21 20 20 20 20 20 20 20 20 19 18 18 18 18 17 17 17 17 16 15 14 13 13 12 12 12 11 10 9 8 8 8 9 9 8 7 6 4 3 3 3 3 2 3 3 4 5 6 7 8 7 6 3 4 5 6 7 9 10 10 10 11 10 10
37 38 39 39 39 39 39 38 37 36 35 34 33 33 32 31 30 28 27 25 24 23 21 21 21 20 20 19 18 19 19 19 19 18 18 18 18 17 17 16 15 14 13 13 12 12 11 10 9 9 9 9 9 9 8 7 6 5 4 4 4 5 4 4 4 5 6 6 7 8 8 7 5 3 3 4 5 7 9 11 9 10 12 10 10
38 38 38 38 38 39 39 39 38 37 36 35 35 34 33 33 32 30 28 26 25 24 23 22 21 20 19 18 17 18 19 20 20 20 19 19 18 18 17 16 15 14 13 13 12 11 11 10 10 10 10 10 10 9 8 6 4 4 4 5 5 5 5 4 5 5 6 8 7 8 8 6 5 3 3 3 5 7 9 11 9 11 13 10 9
38 38 37 37 38 39 40 40 39 38 37 37 36 35 35 33 32 31 29 27 26 25 24 22 21 20 19 18 18 18 19 20 21 20 20 19 19 18 17 16 15 15 14 13 13 11 11 10 10 10 11 11 10 9 7 5 4 4 4 5 5 5 5 5 6 6 7 7 7 7 7 6 6 4 3 3 4 7 9 10 10 12 14 12 11
39 38 36 36 37 39 40 40 39 39 38 37 36 36 35 34 32 30 29 28 27 25 24 23 22 20 19 19 18 18 19 20 21 21 21 20 20 19 18 17 16 16 15 15 13 12 12 11 11 11 12 12 10 9 7 6 5 5 5 5 4 6 6 7 7 7 7 7 6 7 7 7 6 4 3 2 4 7 8 8 9 12 14 14 13
39 37 35 36 37 38 39 40 40 39 38 37 36 36 35 34 32 31 30 28 27 26 25 24 22 21 20 20 19 18 19 19 19 20 21 21 20 20 19 18 17 17 16 16 14 13 13 12 11 12 13 12 11 9 7 7 7 7 7 7 6 6 7 8 8 8 7 7 7 7 7 7 6 4 2 3 5 7 8 7 9 12 15 15 15
38 36 35 35 34 35 38 39 39 38 37 36 36 35 34 33 33 32 30 29 28 27 25 24 22 21 21 21 20 19 19 18 18 18 20 21 21 21 20 19 18 18 17 16 15 14 13 12 12 13 13 12 11 10 8 8 8 7 8 8 7 7 7 8 8 8 7 7 8 8 9 8 7 5 3 4 6 7 8 9 10 12 14 15 14
37 35 34 31 31 33 36 38 38 37 36 35 35 35 34 34 34 32 31 30 29 27 25 24 22 22 22 21 21 19 18 17 17 17 18 19 20 21 21 20 19 19 18 17 16 15 14 13 13 14 14 13 11 11 10 9 8 7 8 8 7 8 8 7 6 6 7 8 9 10 11 10 8 6 4 5 6 7 9 10 10 12 14 14 11
37 35 31 28 29 30 32 36 37 36 35 35 35 35 35 34 34 33 31 31 30 28 26 24 23 22 22 21 20 19 18 17 16 17 18 18 20 21 21 21 21 20 19 17 17 15 14 14 15 15 14 13 11 11 10 9 7 7 7 7 8 8 7 7 7 7 9 10 11 11 10 9 7 5 4 5 6 7 9 11 10 11 13 11 9
38 34 29 27 27 28 30 34 37 36 35 35 35 36 35 35 35 33 32 31 30 29 27 24 23 22 21 20 19 18 17 17 16 17 17 18 19 20 21 22 21 21 20 18 17 16 15 15 16 16 15 13 12 10 9 8 7 7 7 8 8 8 8 8 8 10 11 12 13 12 10 8 7 5 4 4 5 6 9 9 9 11 11 9 8
38 32 28 27 26 26 29 33 35 36 35 35 36 36 36 35 35 34 32 32 31 29 27 24 23 22 21 20 19 18 17 16 16 16 17 17 18 20 21 22 22 21 20 19 18 17 17 17 17 17 15 13 12 10 7 6 6 6 7 8 8 9 9 9 10 11 13 14 14 10 8 7 6 4 4 4 5 6 8 8 8 9 10 8 8
35 30 28 26 26 26 28 31 34 35 35 35 35 36 35 35 35 33 32 32 30 28 26 24 23 22 21 20 18 17 17 16 16 16 17 18 19 20 20 21 21 22 21 20 19 18 18 18 18 17 15 13 11 8 6 6 8 8 8 9 9 10 10 10 11 13 14 15 13 8 6 5 4 4 4 4 5 6 7 7 7 8 9 8 7
32 30 27 25 25 26 28 30 32 33 34 35 35 35 35 35 34 32 32 31 29 27 25 24 23 22 21 20 18 17 17 16 16 16 18 19 20 20 19 20 21 22 22 21 20 20 20 19 18 16 13 11 9 6 5 7 9 10 10 10 10 11 11 11 13 14 14 13 10 5 4 2 3 3 3 3 4 5 7 7 7 7 8 7 7
30 28 26 26 26 25 27 30 30 30 32 33 34 35 35 34 32 31 30 29 27 25 24 23 23 23 22 20 19 18 17 17 16 16 16 18 19 19 18 19 21 22 22 21 21 21 20 19 17 15 13 10 7 4 5 8 11 12 12 12 11 11 11 12 12 12 10 9 5 1 1 1 2 2 1 2 4 5 6 7 7 7 7 7 6
29 27 27 27 26 26 28 29 28 27 29 32 33 35 35 33 31 29 27 26 25 24 23 24 24 23 22 21 20 18 18 17 16 15 15 16 17 17 16 19 21 21 22 21 20 20 19 17 16 14 12 9 6 6 8 10 11 12 13 13 12 12 11 10 9 8 7 5 2 2 1 0 1 1 1 2 4 4 5 6 6 6 7 7 6
29 29 28 26 25 27 28 26 24 24 27 29 31 33 33 32 30 27 26 25 25 23 23 24 24 23 23 21 20 19 18 17 15 14 13 14 15 14 13 17 21 20 20 20 19 18 17 16 14 12 10 8 7 9 10 10 11 12 13 12 12 12 9 7 7 6 4 2 2 2 1 1 1 1 1 3 3 3 4 4 5 5 6 7 7
32 31 29 26 25 27 27 24 23 24 25 26 28 31 32 31 29 28 26 26 25 25 25 25 24 24 24 22 21 20 19 17 15 13 12 12 13 13 12 16 20 20 19 19 18 17 16 15 13 10 8 8 10 11 11 10 10 11 11 11 11 10 8 7 6 4 2 0 3 2 2 2 1 1 2 4 3 3 4 3 4 5 7 8 8
33 32 29 27 27 28 26 24 23 24 24 25 27 30 32 31 30 29 28 28 27 27 26 25 25 25 24 23 22 21 19 17 15 13 12 11 12 12 12 15 19 20 20 20 19 18 16 15 12 8 8 10 11 11 10 10 10 10 11 10 9 9 8 7 5 3 1 1 3 3 2 2 2 1 3 4 4 4 4 4 4 6 7 8 9
35 33 31 30 29 28 27 25 24 25 25 26 27 30 33 32 32 31 30 30 29 28 27 27 26 26 25 24 22 20 19 17 15 13 12 12 12 12 13 15 17 20 21 21 20 18 16 14 12 10 10 11 10 10 10 10 10 9 9 8 7 7 8 7 5 4 2 2 3 3 3 3 3 2 2 4 4 4 4 4 5 6 7 9 10
37 35 33 32 31 29 27 26 26 26 26 25 26 29 32 33 32 32 31 30 29 28 28 26 26 26 25 24 21 20 19 17 14 13 12 12 13 13 14 16 17 19 20 20 19 18 17 14 13 13 12 12 11 11 11 11 10 9 8 7 5 4 6 7 7 5 4 5 5 5 4 4 4 2 2 4 3 4 4 4 5 6 8 9 11
37 35 34 33 32 31 29 28 28 27 26 24 25 27 29 30 30 30 29 28 26 26 24 23 24 24 24 23 20 19 18 16 14 12 12 11 12 13 15 17 18 18 19 19 18 19 18 16 15 15 13 12 12 12 12 12 11 9 7 6 4 5 5 6 7 6 6 8 7 6 6 6 5 3 1 3 3 3 4 4 6 7 8 10 12
38 37 36 35 34 33 31 31 30 27 26 24 22 23 26 26 25 25 24 22 21 20 20 21 22 22 22 22 20 19 18 16 14 12 11 10 10 12 14 17 17 18 20 20 18 19 19 17 16 15 14 13 13 13 13 13 12 10 6 4 4 6 6 6 7 6 7 9 9 8 8 7 6 5 3 2 2 3 3 4 5 7 9 11 13
40 39 38 36 35 34 33 32 31 28 27 24 21 21 24 25 25 23 22 22 21 21 22 23 23 22 22 22 21 19 18 16 14 11 11 10 10 12 14 16 17 17 20 20 17 17 18 17 16 15 14 14 14 14 13 13 13 11 8 5 4 5 7 8 9 7 7 9 10 10 9 8 7 5 4 3 3 2 3 4 5 7 9 11 13
42 40 38 36 35 34 34 33 31 29 28 25 21 21 25 27 27 27 27 28 27 26 26 24 23 22 21 21 19 19 18 16 14 12 12 12 12 13 14 15 17 18 20 19 17 17 17 17 16 14 14 15 15 15 14 14 14 12 10 8 6 5 7 10 10 8 8 9 10 11 10 9 7 6 5 4 3 3 3 3 5 7 9 11 13
43 40 38 37 36 35 35 34 31 30 29 27 24 22 25 28 28 28 28 28 28 26 24 21 19 18 18 18 19 19 18 16 14 13 13 14 14 14 14 15 17 19 21 21 19 19 18 16 15 15 15 17 18 16 15 14 13 12 10 9 7 4 6 10 12 10 9 9 10 11 11 10 9 8 7 5 4 3 3 4 5 7 9 11 14
42 41 39 38 37 36 36 34 32 30 29 28 27 23 24 28 28 27 26 26 26 24 21 19 18 17 17 17 18 19 18 17 16 15 15 15 15 14 13 15 18 20 22 22 21 20 18 16 16 16 16 19 20 17 15 15 13 11 10 9 7 4 4 9 12 12 10 10 11 11 11 10 9 9 8 6 5 4 4 5 6 7 9 12 14
43 42 40 39 38 37 36 35 32 31 30 29 29 24 23 26 26 26 27 26 24 22 21 20 19 19 18 17 17 18 18 17 17 17 16 16 16 14 13 14 16 20 23 23 21 20 18 16 16 16 17 20 20 17 16 15 12 10 10 9 8 6 5 8 12 13 12 12 12 13 13 12 11 10 9 8 6 5 5 6 6 7 9 12 15
44 42 41 39 39 37 36 36 34 31 30 30 30 26 24 25 25 25 26 26 24 24 24 23 22 21 20 18 17 17 18 18 19 18 18 18 17 16 14 13 15 18 22 24 21 19 18 16 15 15 16 18 19 18 16 14 12 11 11 11 10 8 7 8 12 14 14 14 13 13 14 14 14 12 11 9 7 6 6 6 7 7 9 11 15
43 42 41 40 39 38 37 36 35 32 31 30 30 27 25 25 25 26 26 25 25 25 25 25 24 23 21 19 17 17 18 19 19 20 19 19 18 18 16 14 14 16 21 24 22 20 18 17 15 14 13 13 15 18 17 13 12 12 12 12 12 10 9 8 10 12 14 16 15 14 15 14 14 13 12 10 8 8 7 7 8 8 9 11 14
Wind_Direction
180 173 174 170 170 171 172 171 169 168 165 165 161 159 156 154 154 153 154 153 152 149 147 143 141 140 140 140 138 136 134 132 129 128 128 129 129 127 123 120 118 117 118 118 117 114 111 106 102 108 112 112 113 115 115 113 110 106 102 98 94 91 88 86 83 81 77 75 73 72 72 73 73 72 70 70 69 67 64 62 62 62 61 59 58
176 172 175 171 170 172 172 171 169 167 164 163 160 159 157 156 155 154 155 154 153 150 146 143 142 143 143 143 142 139 136 133 130 130 132 133 128 123 121 120 121 122 123 121 119 117 114 108 106 114 115 114 115 114 114 111 108 104 101 97 92 88 85 81 76 74 71 69 67 65 64 64 68 68 66 66 66 65 63 61 59 57 56 55 56
172 171 175 172 171 173 173 171 169 166 164 162 160 160 159 157 156 156 155 155 154 151 148 144 145 146 147 146 144 141 137 135 133 133 134 132 126 123 124 124 125 125 124 123 121 120 116 110 113 120 119 117 117 115 113 110 108 104 102 97 89 83 81 75 69 67 66 65 64 63 62 61 63 66 64 62 62 61 60 59 58 56 53 51 51
173 172 174 173 171 174 173 171 169 165 164 162 160 160 159 159 158 158 156 155 155 152 149 146 148 149 149 149 146 143 140 137 136 136 136 132 126 126 126 126 125 125 127 127 125 124 120 115 120 124 122 121 119 116 113 112 110 107 103 96 87 82 78 71 68 66 63 62 61 61 61 59 60 63 64 61 58 56 55 53 54 54 53 51 49
177 173 174 174 172 175 174 171 170 165 165 162 161 161 160 161 159 159 157 157 156 153 151 149 150 152 153 152 149 147 144 141 138 138 137 134 130 131 130 129 129 129 130 132 131 128 124 121 126 128 127 125 122 118 115 114 112 110 104 97 91 85 77 72 71 66 61 62 61 60 60 59 57 59 59 57 52 48 47 45 45 46 48 48 48
178 174 174 174 173 175 174 172 170 166 165 163 162 162 161 162 161 161 159 159 158 156 153 152 152 155 157 155 154 150 148 144 141 140 140 137 135 136 135 134 134 132 132 136 136 132 129 127 132 133 131 129 125 121 119 117 115 112 107 101 96 86 78 77 74 66 62 61 60 61 61 59 56 55 55 51 47 42 39 37 36 36 37 39 43
178 174 175 175 174 175 174 173 170 167 166 165 164 163 162 163 163 163 161 161 159 158 156 155 155 157 159 158 157 153 151 147 145 143 141 142 139 140 139 139 136 130 134 141 139 136 133 133 138 138 134 131 127 125 121 118 115 112 107 102 95 84 80 80 74 67 65 61 59 60 59 59 55 51 49 46 43 39 36 33 32 30 29 30 32
179 175 175 176 175 175 174 173 170 168 167 166 165 164 164 164 165 165 164 163 161 160 159 159 157 158 161 160 158 155 153 150 147 146 145 144 142 141 139 139 136 133 141 147 145 143 139 140 144 142 137 134 131 128 123 119 114 110 104 99 92 83 80 78 71 66 66 63 60 60 58 56 51 47 46 43 39 35 31 29 28 27 26 25 24
180 177 176 177 177 176 174 174 171 169 169 168 167 166 165 166 166 166 166 165 163 163 163 161 160 159 162 162 160 156 153 152 150 148 147 144 141 139 136 135 136 138 145 148 150 150 147 146 148 145 141 138 134 131 127 121 113 107 99 94 89 82 77 73 69 65 65 63 62 61 56 53 50 47 47 43 38 33 28 25 24 24 24 23 21
181 178 177 178 179 177 175 174 172 170 170 170 169 168 167 169 168 168 168 166 165 166 166 163 162 161 163 164 161 157 155 153 151 149 147 143 140 138 136 135 133 136 141 144 148 152 151 151 151 148 145 142 138 135 131 123 112 103 94 87 82 78 74 71 69 66 64 61 60 59 54 50 49 48 48 43 38 34 29 24 21 20 22 22 21
182 179 178 180 181 178 176 175 174 172 172 172 171 170 169 171 170 170 170 168 168 168 168 165 164 164 164 165 162 160 156 154 151 148 146 142 140 139 138 136 133 135 139 142 145 149 151 154 153 151 149 147 143 139 134 126 115 103 93 80 69 66 68 73 75 68 62 57 52 52 49 46 45 46 48 44 36 31 27 24 20 18 18 20 21
184 180 180 181 182 179 177 177 176 175 174 174 173 172 172 172 173 172 172 170 170 170 169 167 166 166 166 166 164 162 157 154 151 147 145 143 141 140 141 139 135 134 139 142 144 149 152 155 156 154 154 152 148 142 138 132 122 109 94 72 51 43 49 64 77 70 57 50 43 41 40 39 39 39 43 43 35 28 23 21 20 18 16 17 20
185 182 182 182 182 180 178 179 178 177 175 175 175 175 173 174 175 173 174 173 173 172 170 170 169 168 167 167 166 164 158 153 150 146 145 143 142 141 143 141 137 135 139 144 146 150 154 156 158 158 160 158 153 146 143 142 132 118 99 70 43 33 38 50 68 67 50 41 38 34 29 29 31 31 34 37 32 26 21 19 18 17 15 14 16
187 184 184 182 182 180 181 182 180 179 177 177 177 177 176 175 177 175 176 176 175 174 172 172 171 169 168 167 168 164 157 153 149 147 145 143 142 143 144 142 140 140 141 145 148 151 154 157 160 163 165 164 160 153 151 152 148 138 119 81 38 26 28 40 55 55 42 35 34 30 23 19 20 23 24 26 27 25 21 17 16 16 16 13 12
191 186 184 183 182 182 183 183 181 180 179 179 180 179 178 177 178 177 178 178 177 176 174 174 173 171 169 169 169 164 157 153 151 149 147 145 145 146 146 144 141 143 144 145 148 151 155 159 163 166 168 168 165 161 159 160 163 161 151 106 36 17 10 13 24 30 31 28 24 19 14 11 9 14 16 16 20 23 21 16 14 15 16 15 12
193 189 186 184 184 185 184 184 182 181 181 181 182 181 179 179 179 179 179 181 180 177 176 175 174 172 170 170 169 165 159 156 154 152 151 148 148 150 149 146 144 145 146 148 151 154 158 161 164 167 169 170 170 168 166 165 173 179 192 181 20 3 356 352 353 3 15 16 10 6 6 6 0 4 9 9 14 19 19 16 11 9 12 13 11
193 190 187 185 186 187 185 184 183 182 183 183 183 182 181 180 179 181 181 182 181 179 178 177 175 173 171 169 170 169 163 159 158 156 155 152 152 153 152 150 147 147 149 152 154 157 160 163 165 168 170 172 174 176 176 176 181 193 215 221 271 316 315 326 335 345 360 11 10 9 11 9 359 356 1 4 9 14 17 16 9 3 5 7 6
193 191 189 188 188 189 187 185 184 183 184 184 184 183 182 181 180 182 183 184 183 181 179 179 176 174 172 170 173 173 168 163 161 161 160 157 157 157 156 154 152 152 153 155 157 159 161 162 163 165 168 171 174 176 178 178 174 177 194 217 259 281 278 279 289 314 333 359 11 12 16 19 8 356 357 1 5 10 14 14 7 359 356 358 357
195 194 192 191 191 192 189 187 187 185 185 186 185 184 183 182 182 183 184 185 184 182 180 181 179 175 174 173 175 177 174 169 166 166 165 163 161 160 160 158 157 157 157 159 160 160 160 159 158 159 160 162 165 165 165 161 148 140 143 159 247 272 274 268 260 276 302 326 343 353 7 18 13 3 357 357 359 6 11 10 4 355 347 346 345
198 198 195 194 194 195 192 190 189 187 188 187 186 184 183 183 183 183 185 186 185 183 182 183 182 178 177 176 178 180 179 176 172 171 171 170 166 165 165 163 162 162 162 162 162 162 159 158 157 157 158 157 156 155 153 145 134 129 130 130 121 289 284 269 253 256 277 301 306 325 353 6 2 1 356 351 354 3 7 4 359 350 339 334 333
200 201 199 198 197 197 195 193 192 190 190 188 187 185 183 184 184 183 184 187 186 184 183 184 185 182 180 180 182 184 183 181 178 176 176 175 172 171 171 169 168 167 167 166 165 165 164 163 164 165 163 159 156 153 149 144 140 144 154 156 149 97 313 272 243 240 259 280 282 304 332 344 344 342 342 345 352 0 2 359 352 344 332 324 321
201 201 201 201 200 199 197 196 195 193 192 190 189 186 185 185 184 184 184 188 187 185 186 186 188 187 185 185 186 187 187 186 184 183 181 180 178 177 177 176 175 174 173 171 171 170 171 172 174 174 167 162 160 156 155 159 173 185 192 199 211 233 275 237 202 207 237 263 280 301 314 320 325 328 333 341 350 351 353 353 348 339 327 318 314
201 202 201 201 201 202 200 199 198 196 193 192 191 188 188 187 186 185 184 187 188 188 188 189 191 191 191 190 189 190 191 191 191 189 188 187 185 184 184 183 181 180 179 177 177 177 177 178 179 175 169 167 161 159 165 179 195 201 211 230 250 261 249 225 215 232 253 273 291 305 310 310 310 317 326 335 345 342 346 346 342 338 326 315 314
202 202 201 201 202 203 203 202 200 198 195 194 193 191 190 188 187 186 186 188 189 190 190 192 193 193 195 193 191 192 194 195 196 195 193 193 193 191 191 190 187 185 185 183 182 181 179 180 178 174 173 170 164 168 178 190 201 211 232 250 264 273 267 250 247 254 265 281 293 304 310 306 300 303 315 337 341 330 338 336 333 339 329 320 319
202 202 201 202 204 204 205 204 203 201 197 197 195 193 192 189 188 187 186 188 191 192 192 195 195 195 196 192 192 193 195 197 199 199 197 197 198 198 198 196 192 191 191 190 188 185 184 183 181 178 175 173 174 183 192 201 218 239 257 264 264 276 289 285 280 274 272 280 288 299 304 299 293 297 306 333 330 316 330 331 336 346 335 334 332
202 202 202 204 205 204 205 204 204 203 200 199 198 196 194 191 190 187 186 189 192 194 194 196 197 196 195 192 193 194 196 198 200 201 200 200 201 202 203 201 198 197 198 196 194 192 192 191 188 185 181 181 189 198 206 218 237 255 268 278 272 276 291 294 291 283 279 285 295 306 308 304 299 295 301 318 306 304 323 332 342 347 337 337 339
203 202 203 205 205 204 204 204 205 204 202 201 200 199 196 193 192 189 188 191 194 196 196 197 198 196 193 194 196 195 198 200 201 202 201 203 204 204 205 205 202 201 203 202 200 200 200 198 195 193 191 195 202 208 218 232 246 258 266 275 277 279 285 284 283 283 286 295 308 317 314 313 308 294 292 291 282 299 319 333 343 342 334 333 334
203 202 204 206 205 204 203 204 206 206 204 202 201 201 198 195 194 192 191 193 196 198 198 198 199 197 194 197 198 198 201 203 204 204 205 206 206 206 207 206 204 205 207 207 206 205 204 202 200 200 200 205 209 216 227 239 253 264 269 277 287 292 290 279 277 286 291 298 310 311 308 315 310 291 283 274 281 301 319 330 334 332 331 330 328
203 203 204 206 206 205 204 204 206 207 206 205 203 203 200 197 197 195 193 195 199 200 199 199 200 199 197 199 200 200 203 205 207 208 209 209 209 209 208 208 206 207 210 210 210 208 207 206 204 205 208 211 215 224 234 243 256 266 275 291 303 304 297 282 282 294 300 306 312 311 312 316 305 293 282 271 286 307 322 326 323 325 329 328 326
204 204 204 205 207 206 206 206 208 208 208 207 205 204 203 201 200 198 195 197 201 202 201 199 201 202 202 203 203 203 205 206 208 210 213 212 212 211 210 210 208 210 211 211 212 211 210 210 209 212 216 218 222 232 241 248 259 274 285 295 298 295 292 288 293 305 310 311 312 312 314 314 307 300 277 272 299 318 324 320 316 325 326 323 326
205 204 204 205 206 207 207 208 208 208 209 208 207 207 205 204 204 200 197 199 203 204 202 199 202 205 206 206 206 206 206 207 209 212 215 214 214 214 212 211 210 211 212 211 213 213 213 213 215 219 222 225 231 239 247 251 263 279 285 286 284 280 282 292 306 311 312 313 312 313 311 308 304 290 274 290 315 321 316 312 319 334 329 323 332
205 204 202 204 204 205 207 208 209 208 208 209 208 208 207 206 206 202 200 202 205 206 204 200 203 206 208 210 209 209 209 209 210 212 214 214 216 215 213 213 211 211 211 211 213 214 215 215 219 223 227 231 236 243 250 259 274 284 280 277 275 273 279 292 305 311 314 314 314 312 301 292 289 285 293 315 323 316 309 312 332 344 334 331 336
205 202 202 203 202 203 205 207 209 208 209 210 209 209 208 207 207 204 202 205 207 208 205 201 204 207 210 211 211 211 212 213 213 212 212 212 215 215 214 213 211 210 210 210 211 213 214 216 220 224 229 235 239 243 255 275 286 284 274 271 273 276 284 292 300 304 307 308 307 302 283 271 278 294 315 327 323 310 306 317 340 344 335 333 334
202 201 203 204 203 204 206 208 209 210 211 212 211 211 209 208 208 206 205 207 209 210 206 203 206 208 210 211 212 212 213 215 214 212 211 211 213 214 215 212 209 208 208 209 210 210 212 215 219 223 228 234 236 240 263 288 288 279 267 265 271 277 285 291 296 298 300 302 299 285 263 257 274 304 323 322 309 300 307 323 331 328 327 330 332
203 203 205 206 207 206 208 209 210 210 212 214 213 212 210 210 209 208 208 209 211 211 207 205 207 209 210 210 211 213 213 215 216 214 212 213 214 215 215 210 206 205 206 207 208 208 211 214 218 223 227 230 233 246 277 287 281 271 263 265 272 277 285 289 292 295 299 303 303 280 250 257 292 314 317 292 283 299 312 315 309 307 313 320 326
205 207 208 207 208 210 213 212 210 211 212 214 215 213 213 213 212 210 210 211 211 211 208 206 207 209 211 210 210 213 215 218 220 219 217 216 216 215 214 207 202 202 202 204 205 206 210 213 218 224 225 228 234 259 279 277 270 262 261 269 278 283 288 289 290 295 301 308 323 352 214 275 305 299 273 271 291 306 307 303 303 307 306 305 314
207 210 211 208 209 214 216 213 211 213 213 214 215 215 216 215 213 211 211 211 211 210 207 206 207 209 212 212 210 211 216 220 221 222 220 218 216 214 213 206 200 199 199 201 204 206 210 214 219 223 224 228 242 268 276 274 269 264 264 271 282 289 290 289 287 291 302 317 11 95 110 304 263 222 257 316 321 315 310 308 309 312 307 303 313
210 212 212 211 213 215 214 210 210 212 211 212 213 214 215 214 212 211 210 210 209 208 207 206 206 209 213 213 211 211 214 218 221 222 220 219 216 213 213 207 201 199 200 203 205 208 213 215 218 222 227 242 259 270 275 276 274 270 271 277 285 290 286 279 277 283 298 330 90 105 109 149 175 191 21 12 355 333 325 319 314 320 321 320 330
212 213 212 212 215 213 209 205 204 206 205 206 208 209 211 211 209 209 210 210 209 209 209 207 206 209 213 213 213 212 211 215 221 223 221 222 221 216 215 212 207 205 205 206 207 210 215 218 220 225 239 259 264 267 273 275 271 271 274 280 286 287 275 262 264 271 284 80 110 113 142 159 183 186 47 31 11 344 338 329 325 332 335 339 346
212 213 211 211 212 208 201 199 198 199 198 200 203 205 207 207 206 207 208 209 209 209 210 208 206 209 213 214 214 213 210 214 221 226 227 228 229 224 222 221 216 213 212 210 210 212 217 222 228 234 249 260 263 266 270 267 263 268 274 280 286 279 258 246 240 225 229 163 130 136 163 185 203 178 51 25 1 353 352 340 335 337 341 347 351
212 213 212 210 210 203 197 195 193 194 195 195 198 202 204 204 204 206 207 207 207 207 208 207 205 207 212 214 214 212 210 215 221 226 232 236 239 236 233 232 227 223 220 217 216 218 219 225 234 240 247 256 263 265 265 261 259 263 272 284 291 269 241 227 214 207 222 196 170 175 191 205 205 167 36 5 356 4 359 342 337 338 344 353 354
212 212 212 210 207 202 197 195 192 192 193 192 194 198 202 202 203 204 204 205 204 204 206 205 205 207 210 212 211 210 211 215 220 226 236 243 248 247 243 239 235 233 230 225 225 226 223 227 235 237 243 254 261 262 259 257 256 260 271 285 286 246 225 217 208 210 221 207 197 201 205 212 212 202 338 338 352 6 356 339 336 339 345 351 351
213 213 212 209 206 202 199 197 194 192 191 191 194 196 198 199 201 202 202 202 202 203 204 204 205 206 207 207 207 209 212 215 220 226 236 246 255 257 253 245 238 239 237 231 234 235 228 228 232 234 241 253 259 258 257 257 259 263 272 278 247 204 201 205 205 209 216 215 216 218 214 219 219 209 269 319 338 353 347 338 336 339 343 345 344
213 214 211 208 207 204 201 199 196 194 191 190 195 196 194 194 198 200 199 199 199 199 199 200 203 204 205 207 208 208 211 216 220 227 237 248 262 268 262 249 239 241 238 232 238 238 231 229 231 233 240 251 256 256 256 259 261 263 262 255 220 202 198 195 197 197 203 214 219 217 214 219 222 209 208 265 302 327 334 332 334 337 337 338 337
213 214 210 207 207 205 203 201 198 195 192 190 192 193 192 193 196 197 196 197 198 198 198 199 201 203 206 210 212 211 213 217 221 227 237 249 264 274 269 251 240 241 235 231 236 236 230 231 233 236 244 254 259 257 257 260 262 263 255 246 232 217 212 199 191 186 190 205 211 210 210 213 217 212 209 240 277 302 316 323 327 327 330 333 333
215 214 211 209 209 207 205 203 200 198 194 190 189 191 194 198 197 196 198 199 200 201 202 201 202 205 208 211 216 218 219 221 224 228 238 250 260 271 273 255 241 238 233 231 232 228 228 232 236 241 251 260 261 256 255 257 261 263 260 259 260 247 228 209 194 180 179 194 204 206 207 208 211 212 218 240 261 280 299 316 319 318 323 329 332
215 213 212 213 212 210 207 204 202 200 196 192 190 191 198 204 204 203 205 205 205 205 205 207 209 212 215 217 220 223 224 226 228 232 239 248 255 265 272 258 242 234 230 229 227 225 228 232 238 247 255 262 259 253 252 254 258 263 263 266 272 268 236 220 212 199 185 186 197 206 206 204 205 210 222 239 246 264 301 310 310 313 321 327 332
214 212 212 214 214 212 209 206 203 202 199 195 193 194 202 208 210 211 213 214 213 211 210 212 214 217 221 224 225 226 228 230 231 235 239 245 251 259 267 257 242 232 229 229 227 225 227 231 239 248 256 260 255 249 249 253 258 263 265 268 275 274 240 229 229 226 214 194 187 193 197 199 204 208 214 223 230 256 289 297 302 311 320 328 333
213 212 211 213 214 213 211 208 206 204 202 199 196 199 208 211 211 214 217 220 221 219 218 218 218 220 223 227 229 230 231 232 234 237 239 242 246 253 261 256 245 234 230 231 229 225 227 234 244 252 259 257 251 246 246 250 257 265 268 269 273 270 243 229 227 228 227 213 197 192 190 191 194 196 200 206 217 242 265 280 293 309 320 329 335
213 213 213 214 215 214 212 209 208 206 204 202 199 201 211 214 213 216 218 221 224 225 225 225 224 226 228 229 232 233 234 235 237 239 240 243 245 249 255 256 249 240 235 234 231 229 233 241 247 254 262 261 258 257 251 250 258 267 271 272 274 270 251 235 228 226 226 223 216 206 198 197 198 194 191 200 217 233 249 271 286 303 320 330 335
211 212 213 215 215 215 214 211 210 208 206 205 201 203 212 216 217 220 222 225 228 230 231 231 229 229 231 233 235 237 238 239 241 241 243 245 247 249 252 254 250 244 242 240 237 237 242 248 252 256 261 259 262 264 257 254 263 269 275 279 281 280 270 254 241 234 229 227 225 212 200 199 206 205 198 202 218 233 249 266 279 299 320 329 333